Tracking 31027 objects as of 19-Jul-2025
HD Live streaming from Space Station
objects crossing your sky now

ATLAS 5 CENTAUR DEB

Track ATLAS 5 CENTAUR DEB now!


NORAD ID: 44039
Int'l Code: 2014-055BZ
Perigee: 7,698.2 km
Apogee: 34,742.7 km
Inclination: 20.0 °
Period: 760.2 minutes
Semi major axis: 27591 km
RCS: Unknown
Launch date: September 17, 2014
Source: United States (US)
Launch site: ()

Note: This is SATELLITE DEBRIS
Your satellite tracking list
NOAA 16 DEB
Track 1 satellite(s)




NASA's NSSDC Master Catalog

Two Line Element Set (TLE):
1 44039U 14055BZ  25196.19318602 -.00000024  00000-0  00000-0 0  9995
2 44039  20.0156 160.6855 4900891 136.5262 274.7205  1.89426815 46093
Source of the keplerian elements: AFSPC